NOAA 16 DEB, 41528

Orbit data source: Space-Track

NOAA 16 DEB, 41528 is space debris in SSO originally from a launch on Thu, 21 Sep 2000 UTC launched from the Air Force Western Test Range (AFWTR). Debris objects in space refer to the collection of defunct objects orbiting the Earth. Examples of debris include non-operational satellites, rocket bodies, and fragments generated from explosions, collisions, or faulty payload assembly.

Loading next visibility...
Identifier
41528, 2000-055NC
Orbit
SSO
Country
Flag of USUS
Related business
Manufacturer
Unknown
Mission
Spacecraft
Bus & Motor
Unknown
Mass
Unknown
Launch date (UTC)
2000-09-21 (25 years ago)
Launch vehicle
Unknown
Launch site
Air Force Western Test Range (AFWTR)
Object type
Payload
Rocket body
Debris
Shape & HBR
Unknown shape, 0.1 m
Radar Cross Section
Small (<0.1 m²)

Expand to show TLE details & history
Last TLE update: 20 hours ago

TLE from 20 hours ago
0 NOAA 16 DEB
1 41528U 00055NC  25286.80637268  .00159594  00000-0  15214-1 0  9990
2 41528  98.7506  46.3080 0008458 223.0051 137.0505 14.92456047497380
Epoch: 2025-10-13T19:21Z
TLE epoch observation values (Epoch: 2025-10-13T19:21:10.599Z)
Latitude
-0°
Longitude
93.40997°
Altitude
597.609 km
Speed
7.559 km/s
True Right ascension
03h 05m 13s
True Declination
0° 00' 00"
Sunlit
Object was in full shadow at epoch
Visualization orbit readout
Latitude
Unknown
Longitude
Unknown
Altitude
Unknown
Speed
Unknown
Apparent Right ascension
Unknown
Apparent Declination
Unknown
Sunlit
N/A
Visualization observer readout
Local Sidereal Time
09:35:41
Azimuth
Unknown
Elevation
Unknown
Doppler factor
Unknown
Orbital elements
Apogee altitude
593.236 km
Perigee altitude
581.453 km
Semi-major axis
6,965.482 km
Eccentricity
0.00085
Inclination
98.7506°
RAAN
46.308°
Arg. of periapsis
223.0051°
True anomaly
137.11649°
Mean anomaly
137.0505°
Eccentric anomaly
137.0835°
Mean motion
3.7335 °/min
Orbital period
96.42 mins
BSTAR
0.015214
Loading maneuver chart data...
Computing Atmospheric mass density...
Loading historical data...
Loading historical data...
Loading historical data...
Loading historical data...
Loading historical data...
Loading historical data...
Loading historical data...

Documentation

Showing up to 5 results
|